0608900071,2000,01,01,00,99
0608900071,2000,01,01,01,99
0608900071,2000,01,01,02,99
0608900071,2000,01,01,03,99
0608900071,2000,01,01,04,99
0608900071,2000,01,01,05,99
0608900071,2000,01,01,06,99
0608900071,2000,01,01,07,99
0608900071,2000,01,01,08,99
0608900071,2000,01,01,09,99
0608900071,2000,01,01,10,99
0608900071,2000,01,01,11,99
0608900071,2000,01,01,12,99
0608900071,2000,01,01,13,99
0608900071,2000,01,01,14,99
0608900071,2000,01,01,15,99
0608900071,2000,01,01,16,99
0608900071,2000,01,01,17,99
0608900071,2000,01,01,18,99
0608900071,2000,01,01,19,99
0608900071,2000,01,01,20,99
0608900071,2000,01,01,21,99
0608900071,2000,01,01,22,99
0608900071,2000,01,01,23,99
0608900071,2000,01,02,00,99
0608900071,2000,01,02,01,99
0608900071,2000,01,02,02,99
0608900071,2000,01,02,03,99
0608900071,2000,01,02,04,99
0608900071,2000,01,02,05,99
0608900071,2000,01,02,06,99
0608900071,2000,01,02,07,99
0608900071,2000,01,02,08,99
0608900071,2000,01,02,09,99
0608900071,2000,01,02,10,99
0608900071,2000,01,02,11,99
0608900071,2000,01,02,12,99
0608900071,2000,01,02,13,99
0608900071,2000,01,02,14,99
0608900071,2000,01,02,15,99
0608900071,2000,01,02,16,99
0608900071,2000,01,02,17,99
0608900071,2000,01,02,18,99
0608900071,2000,01,02,19,99
0608900071,2000,01,02,20,99
0608900071,2000,01,02,21,99
0608900071,2000,01,02,22,99
0608900071,2000,01,02,23,99
0608900071,2000,01,03,00,99
0608900071,2000,01,03,01,99
0608900071,2000,01,03,02,99
0608900071,2000,01,03,03,99
0608900071,2000,01,03,04,99
0608900071,2000,01,03,05,99
0608900071,2000,01,03,06,99
0608900071,2000,01,03,07,99
0608900071,2000,01,03,08,99
0608900071,2000,01,03,09,99
0608900071,2000,01,03,10,99
0608900071,2000,01,03,11,99
0608900071,2000,01,03,12,99
0608900071,2000,01,03,13,99
0608900071,2000,01,03,14,99
0608900071,2000,01,03,15,99
0608900071,2000,01,03,16,99
0608900071,2000,01,03,17,99
0608900071,2000,01,03,18,99
0608900071,2000,01,03,19,99
0608900071,2000,01,03,20,99
0608900071,2000,01,03,21,99
0608900071,2000,01,03,22,99
0608900071,2000,01,03,23,99
0608900071,2000,01,04,00,99
0608900071,2000,01,04,01,99
0608900071,2000,01,04,02,99
0608900071,2000,01,04,03,99
0608900071,2000,01,04,04,99
0608900071,2000,01,04,05,99
0608900071,2000,01,04,06,99
0608900071,2000,01,04,07,99
0608900071,2000,01,04,08,99
0608900071,2000,01,04,09,99
0608900071,2000,01,04,10,99
0608900071,2000,01,04,11,99
0608900071,2000,01,04,12,99
0608900071,2000,01,04,13,99
0608900071,2000,01,04,14,5.45
0608900071,2000,01,04,15,5.27
0608900071,2000,01,04,16,4.9
0608900071,2000,01,04,17,4.49
0608900071,2000,01,04,18,4.52
0608900071,2000,01,04,19,4.64
0608900071,2000,01,04,20,4.71
0608900071,2000,01,04,21,4.65
0608900071,2000,01,04,22,4.65
0608900071,2000,01,04,23,4.55
0608900071,2000,01,05,00,4.55
0608900071,2000,01,05,01,4.44
0608900071,2000,01,05,02,4.3
0608900071,2000,01,05,03,4.23
0608900071,2000,01,05,04,4.34
0608900071,2000,01,05,05,4.76
0608900071,2000,01,05,06,5.21
0608900071,2000,01,05,07,5.11
0608900071,2000,01,05,08,1.85
0608900071,2000,01,05,09,1.55
0608900071,2000,01,05,10,2.13
0608900071,2000,01,05,11,2.3
0608900071,2000,01,05,12,2.31
0608900071,2000,01,05,13,5.06
0608900071,2000,01,05,14,6.48
0608900071,2000,01,05,15,6.4
0608900071,2000,01,05,16,5.45
0608900071,2000,01,05,17,4.74
0608900071,2000,01,05,18,2.22
0608900071,2000,01,05,19,5.71
0608900071,2000,01,05,20,5.73
0608900071,2000,01,05,21,5.24
0608900071,2000,01,05,22,4.73
0608900071,2000,01,05,23,4.48
0608900071,2000,01,06,00,5.1
0608900071,2000,01,06,01,4.17
0608900071,2000,01,06,02,3.82
0608900071,2000,01,06,03,0.6
0608900071,2000,01,06,04,1.77
0608900071,2000,01,06,05,2.43
0608900071,2000,01,06,06,1.69
0608900071,2000,01,06,07,2.66
0608900071,2000,01,06,08,2.43
0608900071,2000,01,06,09,2.15
0608900071,2000,01,06,10,2.62
0608900071,2000,01,06,11,3.79
0608900071,2000,01,06,12,4
0608900071,2000,01,06,13,3.56
0608900071,2000,01,06,14,4.33
0608900071,2000,01,06,15,3.47
0608900071,2000,01,06,16,2.95
0608900071,2000,01,06,17,2.87
0608900071,2000,01,06,18,2.41
0608900071,2000,01,06,19,3.35
0608900071,2000,01,06,20,3.7
0608900071,2000,01,06,21,2.71
0608900071,2000,01,06,22,2.68
0608900071,2000,01,06,23,2.78
0608900071,2000,01,07,00,2.59
0608900071,2000,01,07,01,2.86
0608900071,2000,01,07,02,2.91
0608900071,2000,01,07,03,2.88
0608900071,2000,01,07,04,1.79
0608900071,2000,01,07,05,2.64
0608900071,2000,01,07,06,2.58
0608900071,2000,01,07,07,2.67
0608900071,2000,01,07,08,1.69
0608900071,2000,01,07,09,4.21
0608900071,2000,01,07,10,0.41
0608900071,2000,01,07,11,0.34
0608900071,2000,01,07,12,0.35
0608900071,2000,01,07,13,99
0608900071,2000,01,07,14,99
0608900071,2000,01,07,15,1.28
0608900071,2000,01,07,16,0.2
0608900071,2000,01,07,17,0.06
0608900071,2000,01,07,18,0.07
0608900071,2000,01,07,19,0
0608900071,2000,01,07,20,0.12
0608900071,2000,01,07,21,0.08
0608900071,2000,01,07,22,0.09
0608900071,2000,01,07,23,0.08
0608900071,2000,01,08,00,0.14
0608900071,2000,01,08,01,0.1
0608900071,2000,01,08,02,0.07
0608900071,2000,01,08,03,0
0608900071,2000,01,08,04,0.09
0608900071,2000,01,08,05,0.09
0608900071,2000,01,08,06,0.13
0608900071,2000,01,08,07,0.12
0608900071,2000,01,08,08,0.15
0608900071,2000,01,08,09,0.27
0608900071,2000,01,08,10,0.38
0608900071,2000,01,08,11,0.77
0608900071,2000,01,08,12,1.22
0608900071,2000,01,08,13,1.47
0608900071,2000,01,08,14,1.39
0608900071,2000,01,08,15,1.37
0608900071,2000,01,08,16,0.52
0608900071,2000,01,08,17,0.28
0608900071,2000,01,08,18,0.39
0608900071,2000,01,08,19,0.39
0608900071,2000,01,08,20,0.41
0608900071,2000,01,08,21,0.34
0608900071,2000,01,08,22,0.45
0608900071,2000,01,08,23,0.35
0608900071,2000,01,09,00,0.41
0608900071,2000,01,09,01,0.35
0608900071,2000,01,09,02,0.3
0608900071,2000,01,09,03,0.35
0608900071,2000,01,09,04,0.36
0608900071,2000,01,09,05,0.34
0608900071,2000,01,09,06,0.24
0608900071,2000,01,09,07,0.28
0608900071,2000,01,09,08,0.31
0608900071,2000,01,09,09,0.24
0608900071,2000,01,09,10,0.34
0608900071,2000,01,09,11,0.42
0608900071,2000,01,09,12,0.55
0608900071,2000,01,09,13,0.77
0608900071,2000,01,09,14,0.83
0608900071,2000,01,09,15,1.18
0608900071,2000,01,09,16,0.62
0608900071,2000,01,09,17,0.42
0608900071,2000,01,09,18,0.37
0608900071,2000,01,09,19,0.37
0608900071,2000,01,09,20,0.4
0608900071,2000,01,09,21,0.39
0608900071,2000,01,09,22,0.32
0608900071,2000,01,09,23,0.27
0608900071,2000,01,10,00,0.3
0608900071,2000,01,10,01,0.45
0608900071,2000,01,10,02,0.3
0608900071,2000,01,10,03,0.23
0608900071,2000,01,10,04,0.22
0608900071,2000,01,10,05,0.2
0608900071,2000,01,10,06,0.21
0608900071,2000,01,10,07,0.21
0608900071,2000,01,10,08,0.2
0608900071,2000,01,10,09,0.18
0608900071,2000,01,10,10,0.18
0608900071,2000,01,10,11,0.19
0608900071,2000,01,10,12,0.19
0608900071,2000,01,10,13,0.34
0608900071,2000,01,10,14,0.71
0608900071,2000,01,10,15,1.34
0608900071,2000,01,10,16,1.35
0608900071,2000,01,10,17,1.17
0608900071,2000,01,10,18,0.93
0608900071,2000,01,10,19,0.93
0608900071,2000,01,10,20,1.01
0608900071,2000,01,10,21,1.13
0608900071,2000,01,10,22,1.17
0608900071,2000,01,10,23,1.1
0608900071,2000,01,11,00,1.09
0608900071,2000,01,11,01,0.97
0608900071,2000,01,11,02,0.95
0608900071,2000,01,11,03,0.97
0608900071,2000,01,11,04,0.92
0608900071,2000,01,11,05,0.98
0608900071,2000,01,11,06,0.85
0608900071,2000,01,11,07,0.83
0608900071,2000,01,11,08,0.54
0608900071,2000,01,11,09,0.63
0608900071,2000,01,11,10,99
0608900071,2000,01,11,11,0.69
0608900071,2000,01,11,12,1.09
0608900071,2000,01,11,13,1.25
0608900071,2000,01,11,14,1.45
0608900071,2000,01,11,15,1.67
0608900071,2000,01,11,16,1.92
0608900071,2000,01,11,17,2.72
0608900071,2000,01,11,18,2.8
0608900071,2000,01,11,19,2.66
0608900071,2000,01,11,20,1.84
0608900071,2000,01,11,21,2.63
0608900071,2000,01,11,22,2.83
0608900071,2000,01,11,23,2.3
0608900071,2000,01,12,00,1.45
0608900071,2000,01,12,01,0.56
0608900071,2000,01,12,02,0.26
0608900071,2000,01,12,03,0.22
0608900071,2000,01,12,04,0.37
0608900071,2000,01,12,05,0.2
0608900071,2000,01,12,06,0.06
0608900071,2000,01,12,07,0.03
0608900071,2000,01,12,08,0.07
0608900071,2000,01,12,09,0.09
0608900071,2000,01,12,10,0.43
0608900071,2000,01,12,11,0.97
0608900071,2000,01,12,12,1.22
0608900071,2000,01,12,13,1.37
0608900071,2000,01,12,14,1.23
0608900071,2000,01,12,15,0.98
0608900071,2000,01,12,16,0.57
0608900071,2000,01,12,17,0.66
0608900071,2000,01,12,18,0.24
0608900071,2000,01,12,19,0.19
0608900071,2000,01,12,20,0.08
0608900071,2000,01,12,21,0.08
0608900071,2000,01,12,22,0.18
0608900071,2000,01,12,23,0.24
0608900071,2000,01,13,00,0.2
0608900071,2000,01,13,01,0.22
0608900071,2000,01,13,02,0.2
0608900071,2000,01,13,03,0.11
0608900071,2000,01,13,04,0.05
0608900071,2000,01,13,05,0.05
0608900071,2000,01,13,06,0.05
0608900071,2000,01,13,07,0.04
0608900071,2000,01,13,08,0
0608900071,2000,01,13,09,0.44
0608900071,2000,01,13,10,0.87
0608900071,2000,01,13,11,1.04
0608900071,2000,01,13,12,1.51
0608900071,2000,01,13,13,1.76
0608900071,2000,01,13,14,1.74
0608900071,2000,01,13,15,1.66
0608900071,2000,01,13,16,1.6
0608900071,2000,01,13,17,1.43
0608900071,2000,01,13,18,1.49
0608900071,2000,01,13,19,1.46
0608900071,2000,01,13,20,1.5
0608900071,2000,01,13,21,1.65
0608900071,2000,01,13,22,1.66
0608900071,2000,01,13,23,1.75
0608900071,2000,01,14,00,1.74
0608900071,2000,01,14,01,1.74
0608900071,2000,01,14,02,1.8
0608900071,2000,01,14,03,1.63
0608900071,2000,01,14,04,1.52
0608900071,2000,01,14,05,1.51
0608900071,2000,01,14,06,1.68
0608900071,2000,01,14,07,1.61
0608900071,2000,01,14,08,1.51
0608900071,2000,01,14,09,1.3
0608900071,2000,01,14,10,1.34
0608900071,2000,01,14,11,1.4
0608900071,2000,01,14,12,1.49
0608900071,2000,01,14,13,1.42
0608900071,2000,01,14,14,1.33
0608900071,2000,01,14,15,0.99
0608900071,2000,01,14,16,0.73
0608900071,2000,01,14,17,0.71
0608900071,2000,01,14,18,0.81
0608900071,2000,01,14,19,0.31
0608900071,2000,01,14,20,0.72
0608900071,2000,01,14,21,0.43
0608900071,2000,01,14,22,0.49
0608900071,2000,01,14,23,0.79
0608900071,2000,01,15,00,1.18
0608900071,2000,01,15,01,1.24
0608900071,2000,01,15,02,1.96
0608900071,2000,01,15,03,2.15
0608900071,2000,01,15,04,2.14
0608900071,2000,01,15,05,1.96
0608900071,2000,01,15,06,1.68
0608900071,2000,01,15,07,0.7
0608900071,2000,01,15,08,0.8
0608900071,2000,01,15,09,1.42
0608900071,2000,01,15,10,1.12
0608900071,2000,01,15,11,0.86
0608900071,2000,01,15,12,0.68
0608900071,2000,01,15,13,0.7
0608900071,2000,01,15,14,0.71
0608900071,2000,01,15,15,0.43
0608900071,2000,01,15,16,0.23
0608900071,2000,01,15,17,0.14
0608900071,2000,01,15,18,0.13
0608900071,2000,01,15,19,0.49
0608900071,2000,01,15,20,0.53
0608900071,2000,01,15,21,0.31
0608900071,2000,01,15,22,0.72
0608900071,2000,01,15,23,1.03
0608900071,2000,01,16,00,1.28
0608900071,2000,01,16,01,1.5
0608900071,2000,01,16,02,1.3
0608900071,2000,01,16,03,1.25
0608900071,2000,01,16,04,1.93
0608900071,2000,01,16,05,2.61
0608900071,2000,01,16,06,2.78
0608900071,2000,01,16,07,2.5
0608900071,2000,01,16,08,2.49
0608900071,2000,01,16,09,2.36
0608900071,2000,01,16,10,2.34
0608900071,2000,01,16,11,2.29
0608900071,2000,01,16,12,2.33
0608900071,2000,01,16,13,2.38
0608900071,2000,01,16,14,2.14
0608900071,2000,01,16,15,2.24
0608900071,2000,01,16,16,2.25
0608900071,2000,01,16,17,2.07
0608900071,2000,01,16,18,2.12
0608900071,2000,01,16,19,1.64
0608900071,2000,01,16,20,0.7
0608900071,2000,01,16,21,0.24
0608900071,2000,01,16,22,0.2
0608900071,2000,01,16,23,0.15
0608900071,2000,01,17,00,0.13
0608900071,2000,01,17,01,0.06
0608900071,2000,01,17,02,0.02
0608900071,2000,01,17,03,0
0608900071,2000,01,17,04,0
0608900071,2000,01,17,05,0
0608900071,2000,01,17,06,0
0608900071,2000,01,17,07,0
0608900071,2000,01,17,08,0.08
0608900071,2000,01,17,09,0.19
0608900071,2000,01,17,10,0.17
0608900071,2000,01,17,11,0.26
0608900071,2000,01,17,12,0.67
0608900071,2000,01,17,13,0.93
0608900071,2000,01,17,14,1.32
0608900071,2000,01,17,15,1.15
0608900071,2000,01,17,16,0.73
0608900071,2000,01,17,17,0.21
0608900071,2000,01,17,18,0.25
0608900071,2000,01,17,19,0.37
0608900071,2000,01,17,20,0.14
0608900071,2000,01,17,21,0.05
0608900071,2000,01,17,22,0.03
0608900071,2000,01,17,23,0.22
0608900071,2000,01,18,00,0.42
0608900071,2000,01,18,01,0.58
0608900071,2000,01,18,02,0.94
0608900071,2000,01,18,03,1.13
0608900071,2000,01,18,04,1.04
0608900071,2000,01,18,05,0.33
0608900071,2000,01,18,06,0
0608900071,2000,01,18,07,0
0608900071,2000,01,18,08,0
0608900071,2000,01,18,09,0.02
0608900071,2000,01,18,10,0.26
0608900071,2000,01,18,11,0.38
0608900071,2000,01,18,12,0.61
0608900071,2000,01,18,13,0.49
0608900071,2000,01,18,14,0.49
0608900071,2000,01,18,15,0.63
0608900071,2000,01,18,16,0.58
0608900071,2000,01,18,17,0.38
0608900071,2000,01,18,18,0.06
0608900071,2000,01,18,19,0
0608900071,2000,01,18,20,0.11
0608900071,2000,01,18,21,0.16
0608900071,2000,01,18,22,0
0608900071,2000,01,18,23,0.03
0608900071,2000,01,19,00,0
0608900071,2000,01,19,01,0
0608900071,2000,01,19,02,0
0608900071,2000,01,19,03,0
0608900071,2000,01,19,04,0
0608900071,2000,01,19,05,0.08
0608900071,2000,01,19,06,0
0608900071,2000,01,19,07,0
0608900071,2000,01,19,08,0
0608900071,2000,01,19,09,0.06
0608900071,2000,01,19,10,0.03
0608900071,2000,01,19,11,0.02
0608900071,2000,01,19,12,0.01
0608900071,2000,01,19,13,0
0608900071,2000,01,19,14,0.15
0608900071,2000,01,19,15,0.05
0608900071,2000,01,19,16,0.44
0608900071,2000,01,19,17,0.78
0608900071,2000,01,19,18,1.1
0608900071,2000,01,19,19,1.1
0608900071,2000,01,19,20,1.19
0608900071,2000,01,19,21,0.85
0608900071,2000,01,19,22,0.35
0608900071,2000,01,19,23,0.98
0608900071,2000,01,20,00,1.21
0608900071,2000,01,20,01,1.02
0608900071,2000,01,20,02,0.32
0608900071,2000,01,20,03,0
0608900071,2000,01,20,04,0
0608900071,2000,01,20,05,0
0608900071,2000,01,20,06,0
0608900071,2000,01,20,07,0
0608900071,2000,01,20,08,0
0608900071,2000,01,20,09,99
0608900071,2000,01,20,10,0.45
0608900071,2000,01,20,11,0.72
0608900071,2000,01,20,12,1.62
0608900071,2000,01,20,13,1.87
0608900071,2000,01,20,14,2.01
0608900071,2000,01,20,15,2.06
0608900071,2000,01,20,16,1.62
0608900071,2000,01,20,17,1
0608900071,2000,01,20,18,1
0608900071,2000,01,20,19,0.56
0608900071,2000,01,20,20,0.08
0608900071,2000,01,20,21,0.09
0608900071,2000,01,20,22,0.09
0608900071,2000,01,20,23,0.13
0608900071,2000,01,21,00,0.07
0608900071,2000,01,21,01,0.09
0608900071,2000,01,21,02,0.05
0608900071,2000,01,21,03,0
0608900071,2000,01,21,04,0
0608900071,2000,01,21,05,0
0608900071,2000,01,21,06,0
0608900071,2000,01,21,07,0
0608900071,2000,01,21,08,0.17
0608900071,2000,01,21,09,0.6
0608900071,2000,01,21,10,0.64
0608900071,2000,01,21,11,0.84
0608900071,2000,01,21,12,0.92
0608900071,2000,01,21,13,1.06
0608900071,2000,01,21,14,0.8
0608900071,2000,01,21,15,0.73
0608900071,2000,01,21,16,0.63
0608900071,2000,01,21,17,0.42
0608900071,2000,01,21,18,0.23
0608900071,2000,01,21,19,0.13
0608900071,2000,01,21,20,0.04
0608900071,2000,01,21,21,0.08
0608900071,2000,01,21,22,0.11
0608900071,2000,01,21,23,0.12
0608900071,2000,01,22,00,0.1
0608900071,2000,01,22,01,0.11
0608900071,2000,01,22,02,0.11
0608900071,2000,01,22,03,0.11
0608900071,2000,01,22,04,0.07
0608900071,2000,01,22,05,0.04
0608900071,2000,01,22,06,0.15
0608900071,2000,01,22,07,0.03
0608900071,2000,01,22,08,0.04
0608900071,2000,01,22,09,0.24
0608900071,2000,01,22,10,0.35
0608900071,2000,01,22,11,1.03
0608900071,2000,01,22,12,1.6
0608900071,2000,01,22,13,2.01
0608900071,2000,01,22,14,2.19
0608900071,2000,01,22,15,1.9
0608900071,2000,01,22,16,0.68
0608900071,2000,01,22,17,0.21
0608900071,2000,01,22,18,0.24
0608900071,2000,01,22,19,0.38
0608900071,2000,01,22,20,0.26
0608900071,2000,01,22,21,0.24
0608900071,2000,01,22,22,0.27
0608900071,2000,01,22,23,0.2
0608900071,2000,01,23,00,0.05
0608900071,2000,01,23,01,0.17
0608900071,2000,01,23,02,0.19
0608900071,2000,01,23,03,0.08
0608900071,2000,01,23,04,0
0608900071,2000,01,23,05,0
0608900071,2000,01,23,06,0
0608900071,2000,01,23,07,0
0608900071,2000,01,23,08,0.08
0608900071,2000,01,23,09,0.12
0608900071,2000,01,23,10,0.2
0608900071,2000,01,23,11,1.03
0608900071,2000,01,23,12,0.7
0608900071,2000,01,23,13,0.86
0608900071,2000,01,23,14,0.8
0608900071,2000,01,23,15,0.74
0608900071,2000,01,23,16,0.68
0608900071,2000,01,23,17,0.52
0608900071,2000,01,23,18,0.25
0608900071,2000,01,23,19,0.18
0608900071,2000,01,23,20,0.08
0608900071,2000,01,23,21,0.02
0608900071,2000,01,23,22,0.15
0608900071,2000,01,23,23,0.43
0608900071,2000,01,24,00,0.57
0608900071,2000,01,24,01,0.71
0608900071,2000,01,24,02,0.75
0608900071,2000,01,24,03,0.5
0608900071,2000,01,24,04,0.71
0608900071,2000,01,24,05,0.32
0608900071,2000,01,24,06,0.05
0608900071,2000,01,24,07,0
0608900071,2000,01,24,08,0
0608900071,2000,01,24,09,0
0608900071,2000,01,24,10,0.26
0608900071,2000,01,24,11,0.61
0608900071,2000,01,24,12,0.59
0608900071,2000,01,24,13,0.4
0608900071,2000,01,24,14,0.38
0608900071,2000,01,24,15,0.74
0608900071,2000,01,24,16,0.38
0608900071,2000,01,24,17,0.01
0608900071,2000,01,24,18,0.04
0608900071,2000,01,24,19,0.09
0608900071,2000,01,24,20,0.26
0608900071,2000,01,24,21,0.05
0608900071,2000,01,24,22,0.11
0608900071,2000,01,24,23,0.15
0608900071,2000,01,25,00,0.12
0608900071,2000,01,25,01,0.16
0608900071,2000,01,25,02,0.29
0608900071,2000,01,25,03,0.57
0608900071,2000,01,25,04,0.67
0608900071,2000,01,25,05,0.8
0608900071,2000,01,25,06,0.15
0608900071,2000,01,25,07,0
0608900071,2000,01,25,08,0.09
0608900071,2000,01,25,09,0.51
0608900071,2000,01,25,10,0.64
0608900071,2000,01,25,11,0.73
0608900071,2000,01,25,12,1.01
0608900071,2000,01,25,13,1.14
0608900071,2000,01,25,14,1.18
0608900071,2000,01,25,15,1.05
0608900071,2000,01,25,16,0.47
0608900071,2000,01,25,17,0.35
0608900071,2000,01,25,18,0.02
0608900071,2000,01,25,19,0.09
0608900071,2000,01,25,20,0.12
0608900071,2000,01,25,21,0.16
0608900071,2000,01,25,22,0.05
0608900071,2000,01,25,23,0.14
0608900071,2000,01,26,00,0.02
0608900071,2000,01,26,01,0
0608900071,2000,01,26,02,0
0608900071,2000,01,26,03,0
0608900071,2000,01,26,04,0
0608900071,2000,01,26,05,0
0608900071,2000,01,26,06,0
0608900071,2000,01,26,07,0.06
0608900071,2000,01,26,08,0.11
0608900071,2000,01,26,09,0.08
0608900071,2000,01,26,10,0.11
0608900071,2000,01,26,11,0.31
0608900071,2000,01,26,12,1.21
0608900071,2000,01,26,13,1.55
0608900071,2000,01,26,14,1.96
0608900071,2000,01,26,15,2.17
0608900071,2000,01,26,16,1.56
0608900071,2000,01,26,17,0.18
0608900071,2000,01,26,18,0.21
0608900071,2000,01,26,19,0.15
0608900071,2000,01,26,20,0
0608900071,2000,01,26,21,0
0608900071,2000,01,26,22,0.03
0608900071,2000,01,26,23,0.09
0608900071,2000,01,27,00,0.12
0608900071,2000,01,27,01,0.02
0608900071,2000,01,27,02,0.02
0608900071,2000,01,27,03,0.16
0608900071,2000,01,27,04,0.23
0608900071,2000,01,27,05,0.56
0608900071,2000,01,27,06,0.14
0608900071,2000,01,27,07,0.1
0608900071,2000,01,27,08,0.08
0608900071,2000,01,27,09,1.36
0608900071,2000,01,27,10,99
0608900071,2000,01,27,11,99
0608900071,2000,01,27,12,2.1
0608900071,2000,01,27,13,2.32
0608900071,2000,01,27,14,2.39
0608900071,2000,01,27,15,2.06
0608900071,2000,01,27,16,2.15
0608900071,2000,01,27,17,1.8
0608900071,2000,01,27,18,1.39
0608900071,2000,01,27,19,0.48
0608900071,2000,01,27,20,0.7
0608900071,2000,01,27,21,1.19
0608900071,2000,01,27,22,1.14
0608900071,2000,01,27,23,1.95
0608900071,2000,01,28,00,1.9
0608900071,2000,01,28,01,1.42
0608900071,2000,01,28,02,1.22
0608900071,2000,01,28,03,1.92
0608900071,2000,01,28,04,1.97
0608900071,2000,01,28,05,1.75
0608900071,2000,01,28,06,1.59
0608900071,2000,01,28,07,0.97
0608900071,2000,01,28,08,1.2
0608900071,2000,01,28,09,1.78
0608900071,2000,01,28,10,2.48
0608900071,2000,01,28,11,2.62
0608900071,2000,01,28,12,2.74
0608900071,2000,01,28,13,2.78
0608900071,2000,01,28,14,2.91
0608900071,2000,01,28,15,3.04
0608900071,2000,01,28,16,2.74
0608900071,2000,01,28,17,0.38
0608900071,2000,01,28,18,0.09
0608900071,2000,01,28,19,0.29
0608900071,2000,01,28,20,0.07
0608900071,2000,01,28,21,0.4
0608900071,2000,01,28,22,0.33
0608900071,2000,01,28,23,0.47
0608900071,2000,01,29,00,0.32
0608900071,2000,01,29,01,0.27
0608900071,2000,01,29,02,0.26
0608900071,2000,01,29,03,0.06
0608900071,2000,01,29,04,0.07
0608900071,2000,01,29,05,0
0608900071,2000,01,29,06,0.06
0608900071,2000,01,29,07,0.01
0608900071,2000,01,29,08,0.2
0608900071,2000,01,29,09,0.18
0608900071,2000,01,29,10,1.6
0608900071,2000,01,29,11,2.11
0608900071,2000,01,29,12,2.44
0608900071,2000,01,29,13,2.6
0608900071,2000,01,29,14,2.53
0608900071,2000,01,29,15,2.49
0608900071,2000,01,29,16,1.84
0608900071,2000,01,29,17,0.38
0608900071,2000,01,29,18,0.08
0608900071,2000,01,29,19,0.32
0608900071,2000,01,29,20,0.3
0608900071,2000,01,29,21,0.24
0608900071,2000,01,29,22,0.36
0608900071,2000,01,29,23,0.4
0608900071,2000,01,30,00,0.26
0608900071,2000,01,30,01,0.33
0608900071,2000,01,30,02,0.22
0608900071,2000,01,30,03,0.11
0608900071,2000,01,30,04,0.25
0608900071,2000,01,30,05,0.29
0608900071,2000,01,30,06,0.22
0608900071,2000,01,30,07,0.19
0608900071,2000,01,30,08,1.92
0608900071,2000,01,30,09,1.79
0608900071,2000,01,30,10,1.58
0608900071,2000,01,30,11,1.76
0608900071,2000,01,30,12,1.63
0608900071,2000,01,30,13,1.54
0608900071,2000,01,30,14,2.2
0608900071,2000,01,30,15,2.13
0608900071,2000,01,30,16,1.63
0608900071,2000,01,30,17,1.44
0608900071,2000,01,30,18,2.43
0608900071,2000,01,30,19,1.9
0608900071,2000,01,30,20,1.68
0608900071,2000,01,30,21,1.19
0608900071,2000,01,30,22,1.76
0608900071,2000,01,30,23,2
0608900071,2000,01,31,00,2.07
0608900071,2000,01,31,01,1.68
0608900071,2000,01,31,02,0.83
0608900071,2000,01,31,03,0
0608900071,2000,01,31,04,0
0608900071,2000,01,31,05,0.02
0608900071,2000,01,31,06,0
0608900071,2000,01,31,07,0.1
0608900071,2000,01,31,08,0.01
0608900071,2000,01,31,09,0.11
0608900071,2000,01,31,10,1.19
0608900071,2000,01,31,11,1.58
0608900071,2000,01,31,12,1.73
0608900071,2000,01,31,13,1.68
0608900071,2000,01,31,14,1.72
0608900071,2000,01,31,15,1.3
0608900071,2000,01,31,16,1.46
0608900071,2000,01,31,17,0.87
0608900071,2000,01,31,18,0.18
0608900071,2000,01,31,19,0
0608900071,2000,01,31,20,0.2
0608900071,2000,01,31,21,0
0608900071,2000,01,31,22,0.06
0608900071,2000,01,31,23,0.22
0608900071,2000,02,01,00,0.09
0608900071,2000,02,01,01,0.67
0608900071,2000,02,01,02,0.29
0608900071,2000,02,01,03,0.26
0608900071,2000,02,01,04,0.82
0608900071,2000,02,01,05,0.89
0608900071,2000,02,01,06,0.8
0608900071,2000,02,01,07,0.27
0608900071,2000,02,01,08,0.05
0608900071,2000,02,01,09,0.12
0608900071,2000,02,01,10,0.37
0608900071,2000,02,01,11,99
0608900071,2000,02,01,12,99
0608900071,2000,02,01,13,1.7
0608900071,2000,02,01,14,1.75
0608900071,2000,02,01,15,1.74
0608900071,2000,02,01,16,1.34
0608900071,2000,02,01,17,0.26
0608900071,2000,02,01,18,0.11
0608900071,2000,02,01,19,0.17
0608900071,2000,02,01,20,0.08
0608900071,2000,02,01,21,0
0608900071,2000,02,01,22,0.11
0608900071,2000,02,01,23,0
0608900071,2000,02,02,00,0
0608900071,2000,02,02,01,0
0608900071,2000,02,02,02,0.08
0608900071,2000,02,02,03,0.02
0608900071,2000,02,02,04,0.04
0608900071,2000,02,02,05,0.08
0608900071,2000,02,02,06,0.13
0608900071,2000,02,02,07,0.23
0608900071,2000,02,02,08,0.1
0608900071,2000,02,02,09,0.1
0608900071,2000,02,02,10,0.14
0608900071,2000,02,02,11,0.36
0608900071,2000,02,02,12,0.57
0608900071,2000,02,02,13,1.01
0608900071,2000,02,02,14,1.52
0608900071,2000,02,02,15,1.81
0608900071,2000,02,02,16,1.48
0608900071,2000,02,02,17,0.14
0608900071,2000,02,02,18,0.07
0608900071,2000,02,02,19,0